Stations météo

Publicité
Dunkerque, France (7010): Température de l'air & dewpoint: 01.07.2020 15:00:00 - 07.07.2020 15:00:00 (CEST)Dunkerque, France (7010): Vitesse du vent & gusts: 01.07.2020 15:00:00 - 07.07.2020 15:00:00 (CEST)Dunkerque, France (7010): Direction du vent: 01.07.2020 15:00:00 - 07.07.2020 15:00:00 (CEST)Dunkerque, France (7010): reduced air pressure: 01.07.2020 15:00:00 - 07.07.2020 15:00:00 (CEST)Dunkerque, France (7010): visibility: 01.07.2020 15:00:00 - 07.07.2020 15:00:00 (CEST)Dunkerque, France (7010): Quantités de précipitations: 01.07.2020 15:00:00 - 07.07.2020 15:00:00 (CEST)
Date & Time tt [°C] td [°C] ff [km/h] ff [knt] fx [km/h] fx [knt] dd ppp [hPa] vv [km] rr [mm]
07.07.2020 15:00:00 - - - - - - - - - -
07.07.2020 14:00:00 19,2 9,7 17 9 22 12 WNW 1020,9 10 0,0
07.07.2020 13:00:00 17,9 9,8 11 6 19 10 WNW 1021,5 10 0,0
07.07.2020 12:00:00 17,1 9,3 13 7 18 10 WNW 1021,9 10 0,0
07.07.2020 11:00:00 16,5 8,7 11 6 18 10 WNW 1022,1 25 0,0
07.07.2020 10:00:00 16,2 8,2 11 6 17 9 WNW 1022,1 10 0,0
07.07.2020 09:00:00 16,1 8,6 11 6 17 9 NW 1021,7 10 0,0
07.07.2020 08:00:00 16,0 9,0 11 6 19 11 NW 1021,7 15 0,0
07.07.2020 07:00:00 15,7 8,0 14 8 24 13 NW 1021,6 10 0,0
07.07.2020 06:00:00 15,3 8,5 18 10 31 17 NW 1021,7 10 0,0
07.07.2020 05:00:00 15,6 8,8 23 12 33 18 NW 1021,6 15 0,0
07.07.2020 04:00:00 16,1 10,4 21 12 33 18 NW 1021,8 - 0,0
07.07.2020 03:00:00 15,9 11,1 19 10 28 15 W 1022,2 - 0,0
07.07.2020 02:00:00 15,4 12,0 11 6 20 11 SW 1022,3 20 0,0
07.07.2020 01:00:00 15,9 12,1 10 6 24 13 SW 1022,5 10 0,0
07.07.2020 00:00:00 16,1 11,7 16 9 27 14 SW 1022,7 10 0,0
06.07.2020 23:00:00 16,6 11,1 14 7 24 13 SW 1022,5 10 0,0
06.07.2020 22:00:00 17,6 12,7 16 9 23 12 W 1022,3 10 0,0
06.07.2020 21:00:00 17,9 9,5 11 6 20 11 W 1022,0 10 0,0
06.07.2020 20:00:00 18,5 9,6 13 7 26 14 WNW 1021,9 10 0,0
06.07.2020 19:00:00 18,7 10,0 19 10 29 16 WNW 1021,5 10 0,0
06.07.2020 18:00:00 18,8 9,8 20 11 33 18 W 1021,4 10 0,0
06.07.2020 17:00:00 19,0 10,5 23 13 40 21 W 1021,0 20 0,0
06.07.2020 16:00:00 19,3 10,0 26 14 40 21 W 1020,6 10 0,0
06.07.2020 15:00:00 19,0 9,5 22 12 35 19 W 1020,3 10 0,0
06.07.2020 14:00:00 18,8 9,6 23 12 36 19 W 1019,8 20 0,0
06.07.2020 13:00:00 17,9 10,0 26 14 41 22 W 1019,2 10 0,0
06.07.2020 12:00:00 17,5 9,6 24 13 44 24 W 1018,8 10 0,0
06.07.2020 11:00:00 16,0 9,2 28 15 44 24 W 1018,2 10 0,0
06.07.2020 10:00:00 15,0 9,4 32 17 48 26 W 1017,6 10 0,0
06.07.2020 09:00:00 14,5 9,7 34 19 52 28 WNW 1016,8 10 0,0
06.07.2020 08:00:00 14,5 9,7 39 21 55 30 W 1016,2 15 0,0
06.07.2020 07:00:00 14,3 9,5 36 19 55 30 W 1015,6 10 0,0
06.07.2020 06:00:00 14,6 10,2 36 19 59 32 W 1015,2 10 0,0
06.07.2020 05:00:00 14,7 9,7 36 19 61 33 W 1014,7 20 0,0
06.07.2020 04:00:00 15,1 9,9 33 18 68 37 W 1014,7 - 0,0
06.07.2020 03:00:00 15,8 9,9 35 19 62 33 W 1014,4 - 0,0
06.07.2020 02:00:00 15,9 10,2 31 17 50 27 W 1014,2 20 0,0
06.07.2020 01:00:00 16,1 12,1 29 16 46 25 W 1014,2 10 0,0
06.07.2020 00:00:00 15,6 11,8 28 15 56 30 WSW 1013,8 10 0,0
05.07.2020 23:00:00 15,8 11,4 24 13 54 29 WSW 1013,9 10 0,0
05.07.2020 22:00:00 15,9 11,5 27 15 66 35 WSW 1013,4 10 0,0
05.07.2020 21:00:00 16,6 11,3 33 18 68 37 WSW 1012,9 10 0,0
05.07.2020 20:00:00 17,4 10,7 33 18 71 38 SW 1012,6 20 0,0
05.07.2020 19:00:00 18,2 10,6 30 16 65 35 SW 1012,7 10 0,0
05.07.2020 18:00:00 18,7 10,8 33 18 76 41 WSW 1012,7 10 0,0
05.07.2020 17:00:00 19,3 10,8 34 18 77 42 WSW 1012,4 20 0,0
05.07.2020 16:00:00 19,7 11,2 35 19 77 42 WSW 1012,8 10 0,0
05.07.2020 15:00:00 19,9 13,1 39 21 82 44 WSW 1012,0 10 0,0
05.07.2020 14:00:00 19,1 14,4 37 20 67 36 SW 1012,6 10 0,0
05.07.2020 13:00:00 18,8 14,7 34 19 66 35 WSW 1012,5 10 0,0
05.07.2020 12:00:00 17,4 15,6 29 16 63 34 WSW 1011,9 10 0,0
05.07.2020 11:00:00 17,3 15,6 31 17 67 36 SW 1012,1 10 0,0
05.07.2020 10:00:00 17,4 15,4 31 17 66 35 WSW 1011,8 5 0,0
05.07.2020 09:00:00 17,3 15,3 31 17 70 38 SW 1011,3 6 0,0
05.07.2020 08:00:00 17,4 15,2 36 19 71 39 SW 1010,8 10 0,0
05.07.2020 07:00:00 17,1 15,1 34 18 61 33 SW 1010,9 10 0,0
05.07.2020 06:00:00 16,8 14,8 32 18 66 36 SW 1010,9 5 0,0
05.07.2020 05:00:00 16,7 14,5 35 19 77 42 SW 1010,9 10 0,0
05.07.2020 04:00:00 16,7 14,5 30 16 65 35 SW 1011,2 - 0,0
05.07.2020 03:00:00 16,7 14,7 34 19 72 39 SW 1012,1 - 0,0
05.07.2020 02:00:00 17,2 15,0 29 16 53 29 SW 1012,1 10 0,0
05.07.2020 01:00:00 17,0 15,3 26 14 56 30 WSW 1012,5 10 0,0
05.07.2020 00:00:00 17,2 15,4 27 15 56 30 SW 1012,6 10 0,0
04.07.2020 23:00:00 17,2 15,7 26 14 56 30 WSW 1012,7 10 0,0
04.07.2020 22:00:00 17,3 16,0 28 15 56 30 SW 1012,3 8 0,0
04.07.2020 21:00:00 17,8 16,5 27 15 57 31 SW 1012,7 3,7 0,2
04.07.2020 20:00:00 18,0 16,7 30 16 67 36 SW 1012,8 6 0,4
04.07.2020 19:00:00 18,9 16,1 35 19 77 42 WSW 1012,7 3,6 0,0
04.07.2020 18:00:00 18,9 16,3 34 18 70 38 SW 1013,0 10 0,0
04.07.2020 17:00:00 19,1 16,5 31 17 71 38 SW 1013,3 15 0,0
04.07.2020 16:00:00 18,9 16,1 37 20 69 38 SW 1013,2 10 0,0
04.07.2020 15:00:00 19,2 16,1 30 16 62 33 SW 1013,5 4,2 0,0
04.07.2020 14:00:00 19,4 15,7 37 20 66 35 SW 1013,6 10 0,0
04.07.2020 13:00:00 18,5 15,4 35 19 71 38 SW 1014,1 10 0,0
04.07.2020 12:00:00 17,6 14,9 32 17 56 30 SW 1013,6 10 0,0
04.07.2020 11:00:00 16,9 14,7 30 16 55 30 SW 1013,9 15 0,0
04.07.2020 10:00:00 16,3 14,3 30 16 53 29 SW 1013,9 9 0,0
04.07.2020 09:00:00 16,2 14,2 26 14 50 27 SW 1014,0 5 0,0
04.07.2020 08:00:00 15,7 13,7 27 14 48 26 SSW 1014,1 13 0,0
04.07.2020 07:00:00 16,1 13,2 29 15 53 28 SW 1014,4 8 0,0
04.07.2020 06:00:00 16,8 12,9 31 17 56 30 SW 1014,5 10 0,0
04.07.2020 05:00:00 16,7 12,4 32 18 50 27 SW 1014,6 13 0,0
04.07.2020 04:00:00 16,5 12,3 26 14 42 23 SW 1015,1 - 0,0
04.07.2020 03:00:00 15,8 12,2 22 12 42 23 SW 1015,8 - 0,0
04.07.2020 02:00:00 16,0 11,8 27 14 44 24 SW 1016,1 10 0,0
04.07.2020 01:00:00 15,9 11,7 24 13 44 24 SW 1016,6 10 0,2
04.07.2020 00:00:00 16,3 10,6 22 12 46 25 SW 1016,9 10 0,0
03.07.2020 23:00:00 16,6 11,1 23 13 52 28 SW 1017,2 10 0,0
03.07.2020 22:00:00 16,7 10,5 27 15 54 29 SW 1016,9 10 0,0
03.07.2020 21:00:00 17,1 10,9 27 15 67 36 WSW 1017,1 10 0,0
03.07.2020 20:00:00 17,9 10,3 31 17 65 35 WSW 1017,4 20 0,0
03.07.2020 19:00:00 18,2 10,6 32 17 66 36 WSW 1017,5 10 0,0
03.07.2020 18:00:00 18,7 10,8 36 20 69 37 SW 1017,6 10 0,0
03.07.2020 17:00:00 19,0 10,3 32 17 67 36 WSW 1017,7 20 0,0
03.07.2020 16:00:00 19,2 10,5 33 18 62 34 WSW 1017,9 10 0,0
03.07.2020 15:00:00 18,8 9,8 31 17 56 30 WSW 1017,8 10 0,0
03.07.2020 14:00:00 19,0 9,2 29 15 56 30 WSW 1018,4 20 0,0
03.07.2020 13:00:00 19,0 9,7 26 14 53 29 SW 1018,3 10 0,0
03.07.2020 12:00:00 18,9 10,5 23 13 46 25 SW 1018,4 10 0,0
03.07.2020 11:00:00 18,1 10,2 27 15 46 25 W 1018,3 20 0,0
03.07.2020 10:00:00 17,3 13,6 19 10 34 19 W 1017,6 10 0,0
03.07.2020 09:00:00 16,7 14,2 12 6 27 15 WSW 1017,2 10 0,0
03.07.2020 08:00:00 16,2 14,6 17 9 27 15 SW 1017,0 10 0,0
03.07.2020 07:00:00 15,3 14,2 14 8 25 14 SW 1016,8 10 0,0
03.07.2020 06:00:00 15,2 14,1 13 7 21 12 SW 1016,6 10 0,0
03.07.2020 05:00:00 15,5 14,0 12 6 26 14 SW 1016,2 - 0,0
03.07.2020 04:00:00 15,4 14,1 16 9 26 14 SW 1016,1 - 0,0
03.07.2020 03:00:00 15,5 14,0 14 8 26 14 SW 1015,9 - 0,0
03.07.2020 02:00:00 15,2 13,9 16 9 31 17 SW 1016,0 10 0,0
03.07.2020 01:00:00 15,5 13,5 17 9 31 17 SW 1015,7 10 0,0
03.07.2020 00:00:00 15,8 13,5 17 9 37 20 SW 1015,3 10 0,0
02.07.2020 23:00:00 15,9 13,2 20 11 39 21 SW 1015,1 18 0,0
02.07.2020 22:00:00 15,9 12,8 18 10 45 25 SW 1014,9 10 0,0
02.07.2020 21:00:00 17,0 12,7 21 12 45 25 SW 1014,5 10 0,0
02.07.2020 20:00:00 17,7 12,4 24 13 50 27 SW 1014,0 15 0,0
02.07.2020 19:00:00 18,3 12,1 25 14 48 26 WSW 1013,6 10 0,0
02.07.2020 18:00:00 18,7 12,4 23 12 48 26 WSW 1013,2 10 0,0
02.07.2020 17:00:00 18,0 12,2 22 12 51 28 WSW 1013,2 15 0,0
02.07.2020 16:00:00 19,8 11,0 26 14 48 26 WSW 1013,2 10 0,0
02.07.2020 15:00:00 18,9 11,0 26 14 49 27 WSW 1012,4 10 0,0
02.07.2020 14:00:00 19,1 11,4 25 13 54 29 WSW 1012,1 10 0,0
02.07.2020 13:00:00 17,8 12,5 22 12 45 24 SW 1011,9 10 0,0
02.07.2020 12:00:00 17,6 12,1 19 10 50 27 WSW 1011,6 10 0,0
02.07.2020 11:00:00 17,0 12,9 20 11 38 21 WSW 1011,1 15 0,0
02.07.2020 10:00:00 17,4 11,9 25 14 38 21 W 1010,9 10 0,0
02.07.2020 09:00:00 16,8 13,7 13 7 36 19 WSW 1010,5 10 0,2
02.07.2020 08:00:00 16,3 14,0 14 8 33 18 WSW 1010,0 10 0,0
02.07.2020 07:00:00 15,9 13,7 20 11 37 20 SW 1009,8 10 0,0
02.07.2020 06:00:00 16,0 13,7 22 12 38 21 SW 1009,5 10 0,0
02.07.2020 05:00:00 16,2 13,7 18 10 40 22 SW 1009,4 10 0,0
02.07.2020 04:00:00 16,5 14,3 24 13 45 24 W 1009,3 - 0,0
02.07.2020 03:00:00 16,3 13,6 19 10 39 21 SW 1009,2 - 0,0
02.07.2020 02:00:00 16,3 13,4 21 11 40 21 SW 1009,0 20 0,0
02.07.2020 01:00:00 15,9 13,2 24 13 40 22 SW 1009,1 10 0,0
02.07.2020 00:00:00 16,2 13,5 24 13 42 23 SW 1009,0 10 0,0
01.07.2020 23:00:00 16,4 12,7 23 12 40 21 SW 1008,8 20 0,0
01.07.2020 22:00:00 16,8 12,5 24 13 47 26 SW 1008,7 10 0,0
01.07.2020 21:00:00 17,7 12,4 24 13 53 29 SW 1008,3 10 0,0
01.07.2020 20:00:00 18,8 12,5 26 14 53 29 WSW 1008,1 20 0,0
01.07.2020 19:00:00 19,3 11,6 26 14 59 32 SW 1008,2 10 0,0
01.07.2020 18:00:00 19,2 12,5 28 15 54 29 SW 1007,9 10 0,0
01.07.2020 17:00:00 19,6 12,6 26 14 52 28 SW 1007,8 20 0,0
01.07.2020 16:00:00 19,9 12,9 28 15 50 27 SW 1007,5 10 0,0
01.07.2020 15:00:00 19,3 12,3 29 16 51 27 SW 1007,8 10 0,0

tt = Température de l'air
td = dewpoint
ff = Vitesse du vent
fx = gusts
dd = Direction du vent
ppp = reduced air pressure
vv = visibility
rr = Quantités de précipitations

stations d'obs. à proximité